User: anonymous   Login
Location: Bílinka
(49.3579°N, 14.3767°E)
Time: 23:09:05
(UTC+00:00)
Language:

In-Cosmos 22 Rocket - Orbit

View from above orbital plane
View from above orbital plane
View from above satellite
View from above satellite

Ground track
Ground track

The orbit data is extracted from the following two-line orbital elements,

1 12646U 81075B   23151.51122108  .00000139  00000-0  63126-4 0  9997
2 12646  81.2254 290.3193 0066447 260.1076 167.7008 14.16028483159213
Epoch (UTC): 31 May 2023 12:16:09
Eccentricity: 0.0066447
inclination: 81.2254°
perigee height: 791 km
apogee height: 887 km
right ascension of ascending node: 290.3193°
argument of perigee: 260.1076°
revolutions per day: 14.16028483
mean anomaly at epoch: 167.7008°
orbit number at epoch: 15921

The dashed part of the orbit path shows where the satellite is in the earth's shadow,  

DLR